Location: Vancouver
(49.2500°N, 123.1330°W)
Time: 16:22:09
(UTC-07:00)

AO-27 - Visible Passes

Search period start: 17 August 2017 00:00
Search period end: 27 August 2017 00:00
Orbit: 785 x 798 km, 98.8° (Epoch: 17 August)

Date Brightness Start Highest point End Pass type
(mag) Time Alt. Az. Time Alt. Az. Time Alt. Az.
17 Aug 10.2 03:33:13 10° NE 03:36:09 15° E 03:39:06 10° ESE visible
17 Aug 7.7 05:11:07 10° NNE 05:16:21 85° WNW 05:21:32 10° SSW visible
18 Aug 8.3 04:42:08 10° NNE 04:47:15 56° ESE 04:52:20 10° S visible
19 Aug 9.2 04:13:22 10° NNE 04:18:02 32° E 04:22:40 10° SSE visible
20 Aug 10.0 03:45:02 10° NE 03:48:41 19° E 03:52:19 10° SE visible
20 Aug 7.7 05:23:31 10° N 05:28:41 69° WNW 05:33:49 10° SSW visible
21 Aug 10.4 03:18:14 10° ENE 03:19:12 10° E 03:20:10 10° E visible
21 Aug 7.9 04:54:26 10° NNE 04:59:39 71° ESE 05:04:49 10° S visible
22 Aug 8.8 04:25:35 10° NNE 04:30:29 41° E 04:35:21 10° SSE visible
23 Aug 9.7 03:57:02 10° NE 04:01:12 24° E 04:05:19 10° SE visible
23 Aug 7.9 05:35:57 10° N 05:41:01 55° WNW 05:46:03 10° SW visible
24 Aug 10.2 03:29:12 10° ENE 03:31:46 14° E 03:34:19 10° ESE visible
24 Aug 7.7 05:06:47 10° NNE 05:12:01 88° ESE 05:17:12 10° SSW visible
25 Aug 8.4 04:37:50 10° NNE 04:42:54 51° E 04:47:56 10° S visible
26 Aug 9.4 04:09:08 10° NE 04:13:40 30° E 04:18:09 10° SSE visible
